Regional Weather Roundup
Issued by NWS Tiyan, Guam

Home | Current Version | Previous Version | Text Only | Print | Product List | Glossary On
Versions: 1 2 3 4 5 6 7 8 9 10 11 12 13 14 15 16 17 18 19 20 21 22 23 24 25 26 27 28 29 30 31 32 33 34 35 36 37 38 39 40 41 42 43 44 45 46 47 48 49 50
000
ASGM40 PGUM 230112
RWRGUM
WEATHER ROUNDUP FOR THE MARIANAS
NATIONAL WEATHER SERVICE TIYAN GU
1100 AM CHST FRI JUN 23 2017

GUZ001>004-230200-
MARIANA ISLANDS-

CITY           SKY/WX    TMP DP  RH WIND       PRES   REMARKS
GUAM AIRPORT   MOSUNNY   88  77  70 E10       29.87F HX 100
ANDERSEN AFB   PTSUNNY   86  77  74 E13       29.88F HX  97
ROTA AIRPORT   MOSUNNY   81  75  83 E15       29.88S
TINIAN AP      MOSUNNY   86  77  74 NE14      29.86F HX  97
SAIPAN AP      MOSUNNY   91  75  59 E14       29.87F HX 102

$$




USA.gov is the U.S. government's official web portal to all federal, state and local government web resources and services.